Home   Weather   22°23'N, 114°12'E   Past weeks
Flag for Hong Kong

Past Weather in 22°23'N, 114°12'E, Hong Kong — Yesterday and Last 2 Weeks

Now
79 °F

Passing clouds.


Feels Like: 81 °F
Forecast: 82 / 71 °F
Wind: 9 mph from East

Location: National Airport

Current Time: Oct 17, 2019 at 11:47:53 pm

Latest Report: Oct 17, 2019 at 10:30 pm


Visibility: N/A

Pressure: 30.07 "Hg

Humidity: 65%

Dew Point: 66 °F

Location of 22°23'N, 114°12'ELocation

Past Weather in 22°23'N, 114°12'E — Graph

°F

22°23'N, 114°12'E Temperature Yesterday

Maximum temperature yesterday: 86 °F (at 12:30 pm)
Minimum temperature yesterday: 77 °F (at 12:00 am)
Average temperature yesterday: 80 °F

High & Low Weather Summary for the Past Weeks

 TemperatureHumidityPressure
High91 °F (Oct 5, 2:30 pm)100% (Oct 7, 4:00 am)30.12 "Hg (Oct 7, 4:00 am)
Low75 °F (Oct 6, 2:37 pm)32% (Oct 5, 4:00 pm)29.80 "Hg (Oct 11, 3:30 pm)
Average82 °F68%29.96 "Hg
* Reported Oct 2 10:00 pm — Oct 17 10:00 pm, 22°23'N, 114°12'E. Weather by CustomWeather, © 2019

Note: Actual official high and low records may vary slightly from our data, if they occured in-between our weather recording intervals... More about our weather records

Advertising

22°23'N, 114°12'E Weather History for the Previous 24 Hours

Scroll right to see more
 ConditionsComfort  
Time TempWeatherWind HumidityBarometerVisibility
10:00 pm
Thu, Oct 17
79 °FPassing clouds.9 mph65%30.07 "HgN/A
9:30 pm79 °FPassing clouds.9 mph65%30.07 "HgN/A
9:00 pm79 °FPassing clouds.6 mph65%30.07 "HgN/A
8:30 pm79 °FPassing clouds.5 mph65%30.04 "HgN/A
8:00 pm81 °FPassing clouds.5 mph62%30.04 "HgN/A
7:30 pm81 °FPassing clouds.8 mph58%30.01 "HgN/A
7:00 pm81 °FPassing clouds.9 mph58%30.01 "HgN/A
6:30 pm81 °FPassing clouds.9 mph58%30.01 "HgN/A
6:00 pm81 °FPassing clouds.8 mph58%29.98 "HgN/A
5:30 pm82 °FScattered clouds.8 mph55%29.98 "HgN/A
5:00 pm82 °FPassing clouds.10 mph55%29.98 "HgN/A
4:30 pm84 °FPassing clouds.6 mph45%29.98 "HgN/A
4:00 pm84 °FPassing clouds.6 mph45%29.98 "HgN/A
3:30 pm84 °FPassing clouds.6 mph45%29.98 "HgN/A
3:00 pm86 °FPassing clouds.7 mph43%29.98 "HgN/A
2:30 pm86 °FPassing clouds.6 mph43%29.98 "HgN/A
2:00 pm86 °FPassing clouds.5 mph43%29.98 "HgN/A
1:30 pm86 °FPassing clouds.3 mph46%29.98 "HgN/A
1:00 pm84 °FPassing clouds.7 mph48%30.01 "HgN/A
12:30 pm84 °FPassing clouds.12 mph48%30.01 "HgN/A
12:00 pm82 °FPassing clouds.8 mph51%30.04 "HgN/A
11:30 am82 °FPassing clouds.6 mph51%30.04 "HgN/A
11:00 am82 °FPassing clouds.7 mph51%30.07 "HgN/A
10:30 am81 °FPassing clouds.9 mph54%30.07 "HgN/A
10:00 am81 °FPassing clouds.7 mph54%30.09 "HgN/A
9:30 am79 °FPassing clouds.12 mph58%30.09 "HgN/A
9:00 am79 °FPassing clouds.9 mph58%30.09 "HgN/A
8:30 am77 °FPassing clouds.12 mph61%30.09 "HgN/A
8:00 am77 °FPassing clouds.12 mph69%30.07 "HgN/A
7:30 am75 °FPassing clouds.10 mph74%30.07 "HgN/A
7:00 am77 °FPassing clouds.10 mph69%30.07 "HgN/A
6:30 am75 °FPassing clouds.10 mph78%30.07 "HgN/A
6:00 am75 °FPassing clouds.8 mph78%30.04 "HgN/A
5:30 am77 °FPassing clouds.9 mph74%30.04 "HgN/A
5:00 am77 °FPassing clouds.8 mph74%30.04 "HgN/A
4:30 am77 °FPassing clouds.6 mph74%30.04 "HgN/A
4:00 am77 °FPassing clouds.9 mph69%30.04 "HgN/A
3:30 am77 °FPassing clouds.8 mph74%30.04 "HgN/A
3:00 am77 °FPassing clouds.9 mph74%30.04 "HgN/A
2:30 am77 °FPassing clouds.9 mph74%30.04 "HgN/A
2:00 am77 °FPassing clouds.9 mph74%30.04 "HgN/A
1:30 am77 °FPassing clouds.8 mph74%30.07 "HgN/A
1:00 am79 °FPassing clouds.9 mph70%30.07 "HgN/A
12:30 am79 °FPassing clouds.9 mph70%30.07 "HgN/A
12:00 am79 °FPassing clouds.8 mph65%30.07 "HgN/A
11:30 pm
Wed, Oct 16
79 °FPassing clouds.10 mph65%30.07 "HgN/A
11:00 pm79 °FPassing clouds.12 mph65%30.07 "HgN/A
Weather by CustomWeather, © 2019

See weather overview